Weather History for KALO - March, 2015

Change the Weather History Date:

Monday, March 9, 2015

  Actual Average Record
Temperature  
Mean Temperature 39 °F 33 °F  
Max Temperature 52 °F 42 °F 63 °F (1990)
Min Temperature 26 °F 24 °F -12 °F (1984)
Degree Days  
Heating Degree Days 26 32  
Month to date heating degree days 400 307  
Since 1 July heating degree days 6161 5726  
Cooling Degree Days 0 0  
Month to date cooling degree days 0 0  
Year to date cooling degree days 0 0  
Moisture  
Dew Point 31 °F    
Average Humidity 75    
Maximum Humidity 100    
Minimum Humidity 50    
Precipitation  
Precipitation 0.00 in 0.05 in 0.76 in (2013)
Month to date precipitation 0.06 0.49  
Year to date precipitation 2.10 2.31  
Snow  
Snow 0.00 in 0.20 in 3.00 in (1960)
Month to date snowfall 0.2 1.7  
Since 1 July snowfall 28.7 30.6  
Snow Depth T in    
Sea Level Pressure  
Sea Level Pressure 30.10 in    
Wind  
Wind Speed 7 mph (South)    
Max Wind Speed 17 mph    
Max Gust Speed 23 mph    
Visibility 10 miles    
Events      
T = Trace of Precipitation, MM = Missing Value Source: NWS Daily Summary

Daily Weather History Graph

Daily Weather History Graph

Search for Another Location

Airport or City:

Trip Planner

Search our weather history database for the weather conditions in past years. The results will help you decide how hot, cold, wet, or windy it might be!

Date:

Astronomy

Mar. 09, 2015 Rise Set
Actual Time 7:32 AM CDT 7:08 PM CDT
Civil Twilight 7:04 AM CDT 7:36 PM CDT
Nautical Twilight 6:31 AM CDT 8:09 PM CDT
Astronomical Twilight 5:58 AM CDT 8:42 PM CDT
Moon 11:07 PM CDT (3/9) 9:20 AM CDT (3/9)
Length of Visible Light 12h 32m
Length of Day
11h 36m
Waning Gibbous, 86% of the Moon is Illuminated
Mar 9
Waning Gibbous
Mar 13
Last Quarter
Mar 20
New
Mar 27
First Quarter
Apr 4
Full

Hourly Weather History & Observations

Time (CDT) Temp. Windchill Dew Point Humidity Pressure Visibility Wind Dir Wind Speed Gust Speed Precip Events Conditions
12:54 AM 34.0 °F 31.0 °F 28.9 °F 82% 30.15 in 10.0 mi SW 3.5 mph - N/A   Clear
1:54 AM 35.1 °F - 30.0 °F 82% 30.15 in 10.0 mi Calm Calm - N/A   Clear
2:54 AM 30.9 °F - 28.0 °F 89% 30.14 in 10.0 mi Calm Calm - N/A   Clear
3:54 AM 28.4 °F - 26.6 °F 93% 30.10 in 10.0 mi Calm Calm - N/A   Clear
4:54 AM 27.0 °F - 26.1 °F 96% 30.13 in 8.0 mi Calm Calm - 0.00 in   Clear
5:54 AM 27.0 °F - 26.1 °F 96% 30.14 in 10.0 mi Calm Calm - 0.00 in   Clear
6:54 AM 28.0 °F - 26.1 °F 92% 30.14 in 10.0 mi Calm Calm - 0.00 in   Clear
7:54 AM 27.0 °F 23.0 °F 26.1 °F 96% 30.15 in 10.0 mi South 3.5 mph - 0.00 in   Clear
8:54 AM 34.0 °F 31.0 °F 30.9 °F 89% 30.15 in 10.0 mi SSW 3.5 mph - 0.00 in   Clear
9:54 AM 39.9 °F 32.9 °F 33.1 °F 77% 30.15 in 10.0 mi SW 11.5 mph - N/A   Clear
10:54 AM 45.0 °F 41.8 °F 33.1 °F 63% 30.16 in 10.0 mi SW 5.8 mph - N/A   Clear
11:54 AM 46.0 °F 41.0 °F 33.1 °F 61% 30.15 in 10.0 mi SW 10.4 mph - N/A   Clear
12:54 PM 48.0 °F - 33.1 °F 56% 30.14 in 10.0 mi SW 16.1 mph - N/A   Clear
1:54 PM 48.2 °F - 33.8 °F 58% 30.11 in 10.0 mi SSW 15.0 mph - N/A   Clear
2:54 PM 51.1 °F - 33.1 °F 50% 30.10 in 10.0 mi SSW 13.8 mph - N/A   Clear
3:54 PM 51.1 °F - 33.1 °F 50% 30.08 in 10.0 mi SSW 12.7 mph - N/A   Clear
4:54 PM 51.1 °F - 35.1 °F 54% 30.06 in 10.0 mi South 9.2 mph - N/A   Clear
5:54 PM 48.9 °F - 33.1 °F 54% 30.05 in 10.0 mi South 12.7 mph - N/A   Clear
6:54 PM 45.0 °F 39.7 °F 35.1 °F 68% 30.04 in 10.0 mi SSE 10.4 mph - N/A   Clear
7:54 PM 44.1 °F 41.5 °F 33.1 °F 65% 30.05 in 10.0 mi SSE 4.6 mph - N/A   Clear
8:54 PM 41.0 °F 35.2 °F 33.1 °F 73% 30.05 in 10.0 mi SSE 9.2 mph - N/A   Clear
9:54 PM 37.9 °F 32.7 °F 32.0 °F 79% 30.04 in 10.0 mi SSE 6.9 mph - N/A   Clear
10:54 PM 37.9 °F 32.1 °F 32.0 °F 79% 30.02 in 10.0 mi SSE 8.1 mph - N/A   Clear
11:54 PM 37.9 °F 34.4 °F 32.0 °F 79% 30.02 in 10.0 mi SSE 4.6 mph - N/A   Clear